User: anonymous   Login
Location: ????????
(54.8751°N, 38.5756°E)
Time: 09:54:16
(UTC+00:00)
Language:

COSMOS 2428 - Orbit

View from above orbital plane
View from above orbital plane
View from above satellite
View from above satellite

Ground track
Ground track

The orbit data is extracted from the following two-line orbital elements,

1 31792U 07029A   24169.90720795 -.00000228  00000-0 -96984-4 0  9995
2 31792  70.9417  85.2661 0008382  36.8222 323.3473 14.12714264875146
Epoch (UTC): 17 June 2024 21:46:22
Eccentricity: 0.0008382
inclination: 70.9417°
perigee height: 844 km
apogee height: 856 km
right ascension of ascending node: 85.2661°
argument of perigee: 36.8222°
revolutions per day: 14.12714264
mean anomaly at epoch: 323.3473°
orbit number at epoch: 87514

The dashed part of the orbit path shows where the satellite is in the earth's shadow,  

DLR